[Iaude] MPEC P66: 2024 PV [a=2.46,e=0.51,i=9.4,H=22.3]

mpec at cfa.harvard.edu mpec at cfa.harvard.edu
Mon Aug 5 19:44:52 EDT 2024


M.P.E.C. 2024-P66                                Issued 2024 August 5, 23:42 UT

     The Minor Planet Electronic Circulars contain information on unusual
         minor planets, routine data on comets and natural satellites,
         and occasional editorial announcements.  They are published
    on behalf of Division F of the International Astronomical Union by the
          Minor Planet Center, Smithsonian Astrophysical Observatory,
                          Cambridge, MA 02138, U.S.A.
			  
             Prepared using the Tamkin Foundation Computer Network

                              MPC at CFA.HARVARD.EDU
            URL https://www.minorplanetcenter.net/    ISSN 1523-6714

                                    2024 PV                                     


Observations:
     K24P00V* C2024 08 03.46181120 47 49.537+08 37 34.90         20.63wXEP066F51
     K24P00V  C2024 08 03.47113520 47 50.981+08 37 20.09         20.73wXEP066F51
     K24P00V  C2024 08 03.48049220 47 52.425+08 37 05.20         20.73wXEP066F51
     K24P00V  C2024 08 03.48972920 47 53.860+08 36 50.47         20.63wXEP066F51
     K24P00V pC2024 08 03.94761720 49 13.43 +08 24 21.2          20.2 GVEP066L01
     K24P00V KC2024 08 03.95022320 49 13.86 +08 24 17.1          20.7 GVEP066L01
     K24P00V KC2024 08 03.95253420 49 14.18 +08 24 13.7          20.2 GVEP066L01
     K24P00V KB2024 08 03.95767220 49 15.55 +08 24 05.8          19.6 GXEP066958
     K24P00V KB2024 08 03.96689420 49 17.01 +08 23 51.3          20.1 GXEP066958
     K24P00V KB2024 08 03.97613020 49 18.44 +08 23 35.4          19.5 GXEP066958
     K24P00V KB2024 08 03.98799 20 49 19.53 +08 23 15.6          20.1 GXEP066M45
     K24P00V KB2024 08 03.99629 20 49 20.86 +08 23 01.4                XEP066M45
     K24P00V KB2024 08 04.01960120 49 25.37 +08 22 25.2          19.7 GXEP066I93
     K24P00V KB2024 08 04.02715420 49 26.64 +08 22 13.6                XEP066I93
     K24P00V KB2024 08 04.03451020 49 27.73 +08 22 01.2          19.8 GXEP066I93
     K24P00V KB2024 08 04.16932 20 49 52.709+08 18 23.94         20.0 GVEP066734
     K24P00V KB2024 08 04.17655 20 49 53.854+08 18 12.10         20.3 GVEP066734
     K24P00V KB2024 08 04.18377 20 49 55.034+08 18 00.14         19.9 GVEP066734
     K24P00V KC2024 08 04.19237320 49 56.09 +08 17 46.1          20.1 GVEP066H21
     K24P00V KC2024 08 04.19516820 49 56.55 +08 17 41.6          20.6 GVEP066H21
     K24P00V KC2024 08 04.19796520 49 56.97 +08 17 37.1          20.5 GVEP066H21
     K24P00V KC2024 08 04.91292 20 52 01.486+07 57 44.03         19.8 GVEP066J57
     K24P00V KC2024 08 04.92449720 52 03.154+07 57 18.22         20.0 GVEP066J95
     K24P00V KC2024 08 04.93166720 52 04.356+07 57 06.52         20.3 GVEP066J95
     K24P00V KC2024 08 04.95174 20 52 07.757+07 56 39.12         20.6 GVEP066J57
     K24P00V KC2024 08 05.18711020 52 48.92 +07 49 57.8          20.1 GVEP066H21
     K24P00V KC2024 08 05.18999820 52 49.38 +07 49 53.0          20.1 GVEP066H21
     K24P00V KC2024 08 05.19288620 52 49.85 +07 49 48.1          20.4 GVEP066H21
     K24P00V KC2024 08 05.19577420 52 50.32 +07 49 43.1          20.5 GVEP066H21
     K24P00V KC2024 08 05.19818120 52 50.72 +07 49 39.2          20.2 GVEP066H21
     K24P00V KC2024 08 05.95812720 55 03.66 +07 27 29.9          20.1 GVEP066104
     K24P00V KC2024 08 05.96431620 55 04.75 +07 27 19.8          20.1 GVEP066104
     K24P00V KC2024 08 05.97040920 55 05.73 +07 27 09.4                VEP066104

Observer details:
104 San Marcello Pistoiese.  Observers P. Bacci, M. Maestripieri.  Measurer P.
    Bacci.  0.60-m f/4 reflector + CCD.
734 Farpoint Observatory, Eskridge.  Observers D. Cromer, G. Hug, D. Goodin,
    R. Valentine, P. Lessig.  Measurer G. Hug.  0.69-m f/3.54 reflector + CMO.
958 Observatoire de Dax.  Observer P. Dupouy.  0.50-m f/4.5 Reflector + CMO.
F51 Pan-STARRS 1, Haleakala.  Observers J. Herman, T. Lowe, P. Minguez, A.
    Schultz, I. Smith.  Measurers K. Chambers, T. de Boer, J. Fairlamb, H.
    Gao, M. Huber, C.-C. Lin, E. Magnier, Y. Ramanjooloo, R. Wainscoat, R.
    Weryk.  1.8-m Ritchey-Chretien + CCD.
H21 Astronomical Research Observatory, Westfield.  Observer R. Holmes.
    Measurers T. Linder, R. Holmes.  0.76-m f/3.0 astrograph + CCD, 1.3-m
    f/4.0 astrograph + CCD.
I93 St Pardon de Conques.  Observer F. Losse.  0.40-m f/3.7 reflector + CMO.
J57 Centro Astronomico Alto Turia, Valencia.  Observers A. Fornas, V. Mas.
    Measurers E. Arce, R. Barbera.  0.40-m f/5.0 reflector + CCD.
J95 Great Shefford.  Observer P. Birtwhistle.  0.41-m f/6.3 Schmidt-Cassegrain
    + CCD.
L01 Visnjan Observatory, Tican.  Observer K. Korlevic.  1.0-m f/2.9 reflector
    + CCD.
M45 Starhopper Observatory, Sfantu Gheorghe.  Observer F. Ursache.  0.41-m
    f/7.5 reflector + CMO.

Orbital elements:
2024 PV                                                  Earth MOID = 0.2064 AU
Epoch 2024 Oct. 17.0 TT = JDT 2460600.5                 Veres                   
M  17.36140              (2000.0)            P               Q                  
n   0.25565497     Peri.  158.10482     +0.74371095     +0.66610405             
a   2.4586680      Node   159.79485     -0.63506606     +0.73040456             
e   0.5077630      Incl.    9.42581     -0.20877052     +0.15104495             
P   3.86           H   22.35          G   0.15           U   9                  
Residuals in seconds of arc
240803 F51  0.1+  0.0     240803 M45  0.4+  0.6-    240804 J95  0.4-  0.4-
240803 F51  0.1+  0.0     240804 I93  0.5-  0.0     240804 J95  0.1-  0.0
240803 F51  0.1-  0.0     240804 I93  0.4+  0.7+    240804 J57  0.2-  0.0
240803 F51  0.1-  0.0     240804 I93 (0.9-  0.3+)   240805 H21  0.1-  0.0
240803 L01  0.1+  0.4-    240804 734  0.5+  0.4+    240805 H21  0.2-  0.1+
240803 L01  0.2+  0.3-    240804 734  0.2+  0.2+    240805 H21  0.2-  0.1+
240803 L01  0.5-  0.1+    240804 734  0.5+  0.0     240805 H21  0.1-  0.1+
240803 958  0.1+  0.3-    240804 H21  0.2-  0.0     240805 H21  0.0   0.3+
240803 958  0.1-  0.1+    240804 H21  0.0   0.1+    240805 104 (0.8-  0.8-)
240803 958  0.8-  0.9-    240804 H21  0.4-  0.2+    240805 104  0.3+  0.0
240803 M45  0.5+  0.0     240804 J57  0.2+  0.5-    240805 104  0.0   0.4+

Ephemeris:
2024 PV                  a,e,i = 2.46, 0.51, 9                   q = 1.2102
Date    TT    R. A. (2000) Decl.     Delta      r    Elong.  Phase     V
2024 07 06    19 44 23.9 +12 38 53   0.3015  1.2708   143.1    28.7    21.5
...
2024 07 21    20 13 24.2 +12 30 59   0.2473  1.2306   146.9    26.8    21.0
...
2024 07 29    20 32 53.6 +10 41 37   0.2265  1.2177   150.5    24.2    20.7
...
2024 08 04    20 49 22.1 +08 23 22   0.2152  1.2121   154.3    21.3    20.5
2024 08 05    20 52 15.4 +07 55 40   0.2137  1.2115   155.0    20.7    20.4
2024 08 06    20 55 10.8 +07 26 42   0.2124  1.2111   155.7    20.1    20.4
...
2024 08 12    21 13 23.0 +04 08 55   0.2069  1.2104   160.6    16.2    20.2
...
2024 08 20    21 38 37.4 -00 59 06   0.2074  1.2152   167.6    10.3    20.0
...
2024 09 04    22 23 23.1 -10 24 01   0.2346  1.2414   172.2     6.3    20.2

M. P. C. Staff               (C) Copyright 2024 MPC           M.P.E.C. 2024-P66





More information about the Iaude mailing list